STARLINK-36990, 68068

Orbit data source: Space-Track

STARLINK-36990, 68068 is a payload satellite owned by SpaceX/Seattle (US) in LEO that was launched on Mon, 02 Mar 2026 UTC via an FALCON 9 launch vehicle from the Air Force Eastern Test Range (AFETR). Payload-class satellites include a variety of spacecraft equipped with specific instruments for various scientific and technological missions. These include communications satellites like Starlink; space stations such as the ISS; scientific satellites like the Hubble; Earth observation satellites from companies like Planet Labs, Umbra, and HawkEye 360; GPS; miniature CubeSats for education and research; and military/defense satellites.

Loading next visibility...
Identifier
68068, 2026-041AE
Orbit
LEO
Country
Flag of USUS
Related business
Manufacturer
SpaceX/Seattle
Mission
Operational Commercial Communications
Bus & Motor
STARLINK V2MO, Unknown motor
Mass
575 kg wet, ~530 kg dry
Launch date (UTC)
2026-03-02 (2 months ago)
Launch vehicle
FALCON 9
Launch site
Air Force Eastern Test Range (AFETR)
Object type
Payload
Rocket body
Debris
Shape & HBR
Box + 2 Pan, 17.7 m
Radar Cross Section
36.964 m²

Expand to show TLE details & history
Last TLE update: 13 hours ago

TLE from 13 hours ago
0 STARLINK-36990
1 68068U 26041AE  26118.85876718  .00011020  00000-0  38360-3 0  9996
2 68068  53.1583 177.2441 0001135  83.3250 276.7879 15.30202418  9069
Epoch: 2026-04-28T20:36Z
TLE epoch observation values (Epoch: 2026-04-28T20:36:37.484Z)
Latitude
-0.00009°
Longitude
11.25981°
Altitude
476.016 km
Speed
7.629 km/s
True Right ascension
11h 48m 58s
True Declination
0° 00' 00"
Sunlit
Object was in full shadow at epoch
Visualization orbit readout
Latitude
Unknown
Longitude
Unknown
Altitude
Unknown
Speed
Unknown
Apparent Right ascension
Unknown
Apparent Declination
Unknown
Sunlit
N/A
Visualization observer readout
Local Sidereal Time
17:08:07
Azimuth
Unknown
Elevation
Unknown
Doppler factor
Unknown
Orbital elements
Apogee altitude
476.242 km
Perigee altitude
474.687 km
Semi-major axis
6,853.602 km
Eccentricity
0.00011
Inclination
53.1583°
RAAN
177.2441°
Arg. of periapsis
83.325°
True anomaly
276.77498°
Mean anomaly
276.7879°
Eccentric anomaly
276.78144°
Mean motion
3.82529 °/min
Orbital period
94.11 mins
BSTAR
0.0003836
Loading maneuver chart data...
Computing Atmospheric mass density...
Loading historical data...
Loading historical data...
Loading historical data...
Loading historical data...
Loading historical data...
Loading historical data...
Loading historical data...

Documentation

Showing up to 5 results
|